PEGASUS DEB, 24197

Orbit data source: Space-Track

PEGASUS DEB, 24197 is space debris in LEO originally from a launch on Thu, 19 May 1994 UTC launched from the Air Force Western Test Range (AFWTR). Debris objects in space refer to the collection of defunct objects orbiting the Earth. Examples of debris include non-operational satellites, rocket bodies, and fragments generated from explosions, collisions, or faulty payload assembly.

Loading next visibility...
Identifier
24197, 1994-029JY
Orbit
LEO
Country
Flag of USUS
Related business
Manufacturer
Unknown
Mission
Spacecraft
Bus & Motor
Unknown
Mass
Unknown
Launch date (UTC)
1994-05-19 (32 years ago)
Launch vehicle
Unknown
Launch site
Air Force Western Test Range (AFWTR)
Object type
Payload
Rocket body
Debris
Shape & HBR
Unknown shape, 0.1 m
Radar Cross Section
Medium (>0.1 m² and <1 m²)

Expand to show TLE details & history
Last TLE update: 20 hours ago

TLE from 20 hours ago
0 PEGASUS DEB
1 24197U 94029JY  26263.32296593  .00002113  00000-0  19878-3 0  9998
2 24197  82.0885 211.4597 0071296 358.7728 153.7116 14.91486718710922
Epoch: 2026-09-20T07:45Z
TLE epoch observation values (Epoch: 2026-09-20T07:45:04.256Z)
Latitude
26.91598°
Longitude
-88.05051°
Altitude
641.323 km
Speed
7.516 km/s
True Right ascension
01h 49m 44s
True Declination
26° 46' 30"
Sunlit
Object was in full shadow at epoch
Visualization orbit readout
Latitude
Unknown
Longitude
Unknown
Altitude
Unknown
Speed
Unknown
Apparent Right ascension
Unknown
Apparent Declination
Unknown
Sunlit
N/A
Visualization observer readout
Local Sidereal Time
21:08:06
Azimuth
Unknown
Elevation
Unknown
Doppler factor
Unknown
Orbital elements
Apogee altitude
640.007 km
Perigee altitude
540.643 km
Semi-major axis
6,968.462 km
Eccentricity
0.00713
Inclination
82.0885°
RAAN
211.4597°
Arg. of periapsis
358.7728°
True anomaly
154.07057°
Mean anomaly
153.7116°
Eccentric anomaly
153.89137°
Mean motion
3.73111 °/min
Orbital period
96.49 mins
BSTAR
0.00019878
Loading maneuver chart data...
Computing Atmospheric mass density...

Documentation

Showing up to 5 results
|